KRAUCHNWS Weather Reports


Display with metric or nautical units.
time (UTC)temp
F
wind
direction
speed
MPH
gust
MPH
rain 1hr
in
rain 24hr
in
rain mn
in
humidity
%
barometer
mb
20260506060210 47 273 2.0 0.0 0.00 0.00 0.00 97 1005.3
20260506050211 46 268 1.0 0.0 0.00 0.00 0.00 96 1005.6
20260506043211 45 307 3.0 0.0 0.00 0.00 0.00 96 1005.8
20260506040211 46 161 0.0 0.0 0.00 0.00 0.00 95 1006.1
20260506033211 47 148 2.0 0.0 0.00 0.00 0.00 95 1006.1
20260506030212 47 330 1.0 0.0 0.00 0.00 0.00 94 1006.6
20260506023211 48 196 7.0 0.0 0.00 0.00 0.00 95 1006.7
20260506020212 49 163 7.0 0.0 0.00 0.00 0.00 94 1006.8
20260506013211 50 190 6.0 0.0 0.00 0.00 0.00 94 1007.0
20260506010213 50 190 6.0 0.0 0.00 0.00 0.00 94 1007.3
20260506003209 49 171 4.0 0.0 0.00 0.00 0.00 94 1007.3
20260506000211 50 153 4.0 0.0 0.00 0.00 0.00 93 1007.4
20260505233209 50 238 7.0 0.0 0.00 0.00 0.00 93 1007.6
20260505230209 50 172 9.0 0.0 0.00 0.00 0.00 93 1007.6
20260505223210 49 186 6.0 0.0 0.00 0.00 0.00 93 1007.8
20260505220209 50 239 8.0 0.0 0.00 0.00 0.00 92 1007.8
20260505213211 51 240 9.0 0.0 0.00 0.00 0.02 90 1008.0
20260505210215 51 207 15.0 0.0 0.00 0.00 0.02 89 1008.0
20260505203209 52 273 15.0 0.0 0.00 0.00 0.02 88 1007.6
20260505200210 53 193 15.0 0.0 0.00 0.00 0.02 87 1007.6
20260505193209 53 249 14.0 0.0 0.00 0.00 0.02 86 1007.4
20260505190215 54 165 16.0 0.0 0.00 0.00 0.02 87 1007.0
20260505183212 55 214 10.0 0.0 0.00 0.00 0.02 84 1006.6
20260505180211 57 286 22.0 0.0 0.00 0.00 0.02 79 1006.4
20260505173210 59 245 15.0 0.0 0.00 0.00 0.02 75 1006.1
20260505170210 59 253 12.0 0.0 0.00 0.00 0.02 73 1005.8
20260505163211 60 240 11.0 0.0 0.00 0.00 0.02 70 1006.0
20260505153210 62 182 5.0 0.0 0.00 0.00 0.02 72 1005.9
20260505150216 59 254 4.0 0.0 0.00 0.00 0.02 76 1005.8
20260505140210 58 355 4.0 0.0 0.00 0.00 0.02 78 1005.9
20260505130210 56 326 7.0 0.0 0.00 0.00 0.02 85 1006.2
20260505123210 56 282 4.0 0.0 0.00 0.00 0.02 90 1006.7
20260505120210 56 238 3.0 0.0 0.00 0.00 0.01 86 1006.9
20260505113210 58 231 9.0 0.0 0.00 0.00 0.00 78 1006.9
20260505110211 59 211 5.0 0.0 0.00 0.00 0.00 74 1006.3
20260505100212 58 274 10.0 0.0 0.00 0.00 0.00 74 1006.5
20260505093212 58 261 8.0 0.0 0.00 0.00 0.00 73 1006.7
20260505090212 58 259 7.0 0.0 0.00 0.00 0.00 74 1006.9
20260505083211 58 259 2.0 0.0 0.00 0.00 0.00 74 1006.8
20260505080210 57 254 4.0 0.0 0.00 0.00 0.00 74 1007.0
20260505073210 56 259 2.0 0.0 0.00 0.00 0.00 77 1007.1
20260505070211 54 254 3.0 0.0 0.00 0.00 0.00 81 1007.6